Regional Weather Roundup
Issued by NWS Charleston, WV

Home | Current Version | Previous Version | Graphics & Text | Print | Product List | Glossary On
Versions: 1 2 3 4 5 6 7 8 9 10 11 12 13 14 15 16 17 18 19 20 21 22 23 24 25 26 27 28 29 30 31 32 33 34 35 36 37 38 39 40 41 42 43 44 45 46 47 48 49 50
831
ASUS41 KRLX 090410
RWRRLX
West Virginia Regional Weather Roundup
National Weather Service Charleston WV
Issued by National Weather Service Pittsburgh PA
1100 PM EST THU DEC 08 2016

Note: "fair" indicates few or no clouds below 12,000 feet with no
significant weather and/or obstructions to visibility.

WVZ003-090500-
Northern Panhandle of West Virginia

CITY           SKY/WX    TMP DP  RH WIND       PRES   REMARKS
WHEELING       FLURRIES  22  16  78 W12       30.26R WCI  10
$$

WVZ009-090500-
Northwest West Virginia

CITY           SKY/WX    TMP DP  RH WIND       PRES   REMARKS
PARKERSBURG    CLOUDY    25  14  63 W10       30.37R WCI  15
$$

WVZ006-090500-
Western West Virginia

CITY           SKY/WX    TMP DP  RH WIND       PRES   REMARKS
HUNTINGTON     PTCLDY    24  13  62 NW7       30.39R WCI  16
$$

WVZ015-090500-
West Central West Virginia

CITY           SKY/WX    TMP DP  RH WIND       PRES   REMARKS
CHARLESTON     MOCLDY    26  15  63 VRB7      30.36R WCI  18
$$

WVZ031-090500-
North Central West Virginia

CITY           SKY/WX    TMP DP  RH WIND       PRES   REMARKS
CLARKSBURG     CLOUDY    24  11  57 W16       30.29R WCI  11
MORGANTOWN     FLURRIES  24  11  57 W10G16    30.27R WCI  14
$$

WVZ035-042-090500-
South Central West Virginia

CITY           SKY/WX    TMP DP  RH WIND       PRES   REMARKS
BECKLEY        CLOUDY    24  12  60 W16G23    30.22R WCI  11
BLUEFIELD      CLOUDY    22  11  62 W10G22    30.21S WCI  11
$$

WVZ045-090500-
Greenbrier Valley of West Virginia

CITY           SKY/WX    TMP DP  RH WIND       PRES   REMARKS
LEWISBURG      CLOUDY    26  12  57 NW7       30.19S WCI  18
$$

WVZ047-090500-
Northern Mountains of West Virginia

CITY           SKY/WX    TMP DP  RH WIND       PRES   REMARKS
ELKINS         FLURRIES  23  11  60 W17G28    30.23R WCI   9
$$

WVZ052-090500-
Eastern Panhandle of West Virginia

CITY           SKY/WX    TMP DP  RH WIND       PRES   REMARKS
MARTINSBURG    CLOUDY    30  13  49 CALM      30.20R
PETERSBURG     PTCLDY    31  15  52 W14G26    30.22R WCI  20
$$




USA.gov is the U.S. government's official web portal to all federal, state and local government web resources and services.